Location: Shepherdstown, WV
(39.4326°N, 77.8042°W)
Time: 16:04:59
(UTC-04:00)

Tiros 1 despin weight - Pass Details

Date: 06 August 2021
Orbit: 593 x 641 km, 48.2° (Epoch: 18 September)

Event Time Altitude Azimuth Distance (km) Brightness Sun altitude
Rises 11:20:21 0° 212° (SSW) 2,884 ? 55.8°
Reaches altitude 10° 11:22:47 10° 204° (SSW) 1,989 ? 56.2°
Maximum altitude 11:26:57 35° 138° (SE) 1,015 ? 56.8°
Drops below altitude 10° 11:31:11 10° 73° (ENE) 2,021 ? 57.5°
Sets 11:33:40 0° 64° (ENE) 2,937 ? 57.9°
